Location: Copeville
(33.0796°N, 96.4155°W)
Time: 22:27:41
(UTC+00:00)

NOAA 19 - Pass Details

Date: 06 April 2023
Orbit: 840 x 859 km, 99.1° (Epoch: 28 May)

Event Time Altitude Azimuth Distance (km) Brightness Sun altitude
Exits shadow 02:06:14 18° 149° (SSE) 1,977 6.7 -16.6°
Maximum altitude 02:10:18 60° 73° (ENE) 962 5.2 -17.4°
Drops below altitude 10° 02:15:40 10° 355° (N) 2,465 7.9 -18.4°
Sets 02:18:03 0° 352° (N) 3,402 8.8 -18.9°
